Weather Roundup
Issued by NWS

Home | Current Version | Previous Version | Text Only | Print | Product List | Glossary On
Versions: 1 2 3 4 5 6 7 8 9 10 11 12 13 14 15 16 17 18 19 20 21 22 23 24 25 26 27 28 29 30 31 32 33 34 35 36 37 38 39 40 41 42 43 44 45 46 47 48 49 50
760
NZUS93 KARX 120310
HRRWXR

CURRENT HOURLY OBSERVATIONS ACROSS
MUCH OF THE UPPER MISSISSIPPI VALLEY
NATIONAL WEATHER SERVICE LA CROSSE WI
900 PM CST THU FEB 11 2016


...SOUTHEAST MINNESOTA...


CITY           SKY/WX    TMP DP  RH WIND       PRES   REMARKS
ROCHESTER      CLOUDY    11   4  73 SW7       30.20F WCI   0
ROCHESTER/MAYO CLOUDY    14   6  68 SW3       30.22S
WINONA         CLOUDY    16   5  62 W6        30.26F WCI   7
AUSTIN         CLOUDY    10   5  79 S5        30.20F WCI   2
ALBERT LEA     CLOUDY    12   5  73 CALM      30.21S
DODGE CENTER   FLURRIES  12   5  73 SW7       30.19F WCI   2
PRESTON        CLOUDY    10   2  69 SW6       30.22F WCI   1
OWATONNA       CLOUDY    14   7  73 SW7       30.22R WCI   4
FARIBAULT      FLURRIES  14   7  73 SW5       30.23S WCI   6
$$

...ELSEWHERE IN MINNESOTA...


CITY           SKY/WX    TMP DP  RH WIND       PRES   REMARKS
MINNEAPOLIS    FLURRIES  14   8  77 W5        30.24S WCI   6
INTNL FALLS    CLEAR      6   0  76 W9        30.13S WCI  -8
DULUTH         CLOUDY    11  -2  56 W10       30.11S WCI  -3
RED WING       CLOUDY    18   7  62 W6        30.24S WCI   9
REDWOOD FALLS  CLOUDY    17  12  80 MISG      30.23S
MANKATO        CLOUDY    14   7  73 SW9       30.23S WCI   2
WORTHINGTON    CLOUDY     9   5  85 W7        30.21R WCI  -3
FAIRMONT       CLOUDY    10   7  85 CALM      30.21R
$$

...SOUTHWEST WISCONSIN...


CITY           SKY/WX    TMP DP  RH WIND       PRES   REMARKS
LA CROSSE      CLOUDY    15   2  56 SW7       30.26F WCI   5
PRAIRIE DU CHI CLOUDY    14   3  62 CALM      30.28S
BOSCOBEL       CLOUDY    14   2  58 CALM      30.28S
LONE ROCK      CLOUDY    15   3  59 CALM      30.26F
PLATTEVILLE    CLOUDY    12   1  60 W5        30.24F WCI   4
FORT MC COY    CLOUDY    15   2  57 W8        30.25S WCI   4
CAMP DOUGLAS   CLOUDY    16   1  53 W10       30.21F WCI   3
VIROQUA        CLOUDY    12   2  64 W7        30.20F WCI   2
WIS DELLS      CLOUDY    15   2  58 SW6       30.21F WCI   6
$$

...ELSEWHERE IN WISCONSIN...


CITY           SKY/WX    TMP DP  RH WIND       PRES   REMARKS
MILWAUKEE      PTCLDY    15   0  51 SW6       30.24F WCI   6
MADISON        CLOUDY    15  -1  49 W5        30.23F WCI   8
GREEN BAY      CLOUDY    13   0  56 SW5       30.18F WCI   5
EAU CLAIRE     CLOUDY    14   1  56 W8        30.21F WCI   3
BLACK RVR FLS  CLOUDY    16  -2  45 W7        30.22F WCI   6
MEDFORD        CLOUDY    11  -2  54 W8        30.12F WCI   0
WAUSAU         CLOUDY    14  -1  51 W9        30.14F WCI   2
WIS RAPIDS     CLOUDY    15  -3  44 W8        30.20F WCI   4
MARSHFIELD     CLOUDY    14  -3  47 W7        30.15F WCI   4
RICE LAKE      CLOUDY    13   3  64 W3        30.20S
$$

...NORTHEAST IOWA...


CITY           SKY/WX    TMP DP  RH WIND       PRES   REMARKS
WATERLOO       CLOUDY    12   5  73 CALM      30.26F
DUBUQUE        MOCLDY    12   4  70 CALM      30.24F
DECORAH        CLOUDY    10   1  67 CALM      30.22F
MASON CITY     CLOUDY     8   4  83 S5        30.23F WCI   0
CHARLES CITY   CLOUDY    10   1  67 SW3       30.24F
OELWEIN        CLOUDY    12   3  67 CALM      30.24F
$$

...ELSEWHERE IN IOWA...


CITY           SKY/WX    TMP DP  RH WIND       PRES   REMARKS
DES MOINES     LGT SNOW  19  14  81 E5        30.25F WCI  12
IOWA CITY      CLOUDY    22   8  55 S5        30.28F WCI  16
FORT DODGE     MOCLDY    12   9  85 CALM      30.23F
MARSHALLTOWN   LGT SNOW  17  11  77 CALM      30.25S
CEDAR RAPIDS   CLOUDY    20  13  74 S3        30.25F
$$

...NORTHERN ILLINOIS...


CITY           SKY/WX    TMP DP  RH WIND       PRES   REMARKS
CHICAGO-OHARE  PTCLDY    16   5  62 W5        30.27S WCI   9
CHICAGO-MIDWAY PTCLDY    19   4  51 W5        30.28S WCI  12
MOLINE         CLOUDY    22   7  52 CALM      30.28F
ROCKFORD       MOCLDY    17   7  64 CALM      30.28F
PEORIA         CLOUDY    24   7  48 S5        30.29F WCI  18
$$

NOTE: "FAIR" INDICATES FEW OR NO CLOUDS BELOW 12,000 FEET WITH NO
SIGNIFICANT WEATHER AND/OR OBSTRUCTIONS TO VISIBILITY. WIND
SPEEDS ARE IN MILES-PER-HOUR.




USA.gov is the U.S. government's official web portal to all federal, state and local government web resources and services.